TimePST,TemperatureF,Dew PointF,Humidity,Sea Level PressureIn,VisibilityMPH,Wind Direction,Wind SpeedMPH,Gust SpeedMPH,PrecipitationIn,Events,Conditions,WindDirDegrees,DateUTC
12:20 AM,37.4,35.6,93,30.26,0.2,Calm,Calm,-,N/A,Fog,Fog,0,2013-01-21 08:20:00
12:53 AM,37.0,35.1,93,30.27,0.2,Calm,Calm,-,N/A,Fog,Fog,0,2013-01-21 08:53:00
1:53 AM,37.0,35.1,93,30.28,0.5,Calm,Calm,-,N/A,Fog,Fog,0,2013-01-21 09:53:00
2:53 AM,37.0,35.1,93,30.28,0.5,Calm,Calm,-,N/A,Fog,Fog,0,2013-01-21 10:53:00
3:45 AM,37.4,35.6,93,30.26,1.0,NNW,3.5,-,N/A,,Mist,330,2013-01-21 11:45:00
3:53 AM,37.0,35.1,93,30.27,1.0,NNW,3.5,-,N/A,,Mist,330,2013-01-21 11:53:00
4:02 AM,37.4,35.6,93,30.25,0.8,Calm,Calm,-,N/A,,Mist,0,2013-01-21 12:02:00
4:14 AM,37.4,35.6,93,30.25,1.5,Calm,Calm,-,N/A,,Overcast,0,2013-01-21 12:14:00
4:26 AM,35.6,33.8,93,30.25,3.0,Calm,Calm,-,N/A,,Overcast,0,2013-01-21 12:26:00
4:41 AM,35.6,33.8,93,30.24,1.8,Calm,Calm,-,N/A,,Overcast,0,2013-01-21 12:41:00
4:53 AM,36.0,34.0,93,30.26,2.5,Calm,Calm,-,N/A,,Overcast,0,2013-01-21 12:53:00
5:10 AM,35.6,33.8,93,30.24,5.0,Calm,Calm,-,N/A,,Overcast,0,2013-01-21 13:10:00
5:29 AM,35.6,35.6,100,30.23,1.8,Calm,Calm,-,N/A,,Overcast,0,2013-01-21 13:29:00
5:53 AM,36.0,35.1,97,30.23,0.8,Calm,Calm,-,N/A,,Mist,0,2013-01-21 13:53:00
6:26 AM,35.6,35.6,100,30.21,1.2,North,3.5,-,N/A,,Overcast,10,2013-01-21 14:26:00
6:53 AM,36.0,34.0,93,30.22,1.2,NNE,4.6,-,N/A,,Overcast,20,2013-01-21 14:53:00
7:45 AM,35.6,33.8,93,30.20,0.8,NNW,3.5,-,N/A,,Mist,330,2013-01-21 15:45:00
7:53 AM,35.1,34.0,96,30.21,0.8,Calm,Calm,-,N/A,,Mist,0,2013-01-21 15:53:00
8:53 AM,36.0,34.0,93,30.23,0.8,South,3.5,-,N/A,,Mist,190,2013-01-21 16:53:00
9:51 AM,35.6,33.8,93,30.22,0.2,Calm,Calm,-,N/A,Fog,Fog,0,2013-01-21 17:51:00
9:53 AM,36.0,34.0,93,30.24,0.2,Variable,3.5,-,N/A,Fog,Fog,0,2013-01-21 17:53:00
10:53 AM,36.0,34.0,93,30.24,0.2,North,3.5,-,N/A,Fog,Fog,10,2013-01-21 18:53:00
11:00 AM,35.6,33.8,93,30.23,0.8,Calm,Calm,-,N/A,,Overcast,0,2013-01-21 19:00:00
11:53 AM,36.0,33.1,89,30.22,1.0,Calm,Calm,-,N/A,,Overcast,0,2013-01-21 19:53:00
12:53 PM,36.0,33.1,89,30.21,1.0,North,3.5,-,N/A,,Overcast,360,2013-01-21 20:53:00
1:00 PM,35.6,33.8,93,30.20,3.0,Calm,Calm,-,N/A,,Overcast,0,2013-01-21 21:00:00
1:53 PM,36.0,33.1,89,30.19,3.0,NNE,3.5,-,N/A,,Overcast,30,2013-01-21 21:53:00
2:53 PM,36.0,33.1,89,30.17,4.0,NE,4.6,-,N/A,,Overcast,50,2013-01-21 22:53:00
3:53 PM,36.0,33.1,89,30.17,4.0,Calm,Calm,-,N/A,,Overcast,0,2013-01-21 23:53:00
4:53 PM,36.0,33.1,89,30.17,5.0,Calm,Calm,-,N/A,,Overcast,0,2013-01-22 00:53:00
5:53 PM,35.1,33.1,92,30.16,4.0,ESE,3.5,-,N/A,,Overcast,120,2013-01-22 01:53:00
6:30 PM,33.8,32.0,93,30.15,2.5,Calm,Calm,-,N/A,,Overcast,0,2013-01-22 02:30:00
6:53 PM,34.0,32.0,92,30.17,1.8,Calm,Calm,-,N/A,,Overcast,0,2013-01-22 02:53:00
7:18 PM,33.8,32.0,93,30.15,0.5,Calm,Calm,-,N/A,Fog,Fog,0,2013-01-22 03:18:00
7:53 PM,34.0,32.0,92,30.17,0.5,South,3.5,-,N/A,Fog,Fog,170,2013-01-22 03:53:00
8:00 PM,33.8,32.0,93,30.15,1.0,SSE,3.5,-,N/A,,Mist,160,2013-01-22 04:00:00
8:07 PM,33.8,33.8,100,30.15,0.5,Calm,Calm,-,N/A,Fog,Fog,0,2013-01-22 04:07:00
8:25 PM,33.8,33.8,100,30.15,1.2,Calm,Calm,-,N/A,,Overcast,0,2013-01-22 04:25:00
8:41 PM,33.8,32.0,93,30.14,0.2,East,3.5,-,N/A,Fog,Fog,90,2013-01-22 04:41:00
8:50 PM,33.8,32.0,93,30.14,0.2,Calm,Calm,-,N/A,Fog,Fog,0,2013-01-22 04:50:00
8:53 PM,33.1,32.0,96,30.16,0.2,Calm,Calm,-,N/A,Fog,Fog,0,2013-01-22 04:53:00
9:53 PM,33.1,32.0,96,30.16,0.5,Calm,Calm,-,N/A,Fog,Fog,0,2013-01-22 05:53:00
10:07 PM,33.8,32.0,93,30.15,0.5,Calm,Calm,-,N/A,Fog,Fog,0,2013-01-22 06:07:00
10:50 PM,33.8,30.2,87,30.14,2.0,Calm,Calm,-,N/A,,Overcast,0,2013-01-22 06:50:00
10:53 PM,33.1,32.0,96,30.16,2.5,Calm,Calm,-,N/A,,Overcast,0,2013-01-22 06:53:00
11:02 PM,33.8,32.0,93,30.14,3.0,Calm,Calm,-,N/A,,Overcast,0,2013-01-22 07:02:00
11:20 PM,33.8,32.0,93,30.14,2.5,Calm,Calm,-,N/A,,Overcast,0,2013-01-22 07:20:00
11:32 PM,33.8,32.0,93,30.14,3.0,Calm,Calm,-,N/A,,Overcast,0,2013-01-22 07:32:00
11:48 PM,33.8,32.0,93,30.14,1.8,Calm,Calm,-,N/A,,Overcast,0,2013-01-22 07:48:00
11:53 PM,33.1,32.0,96,30.15,1.8,Calm,Calm,-,N/A,,Overcast,0,2013-01-22 07:53:00